Home   Weather   Walnut Creek   Past weeks

Flag for USA Past Weather in Walnut Creek, California, USA — Yesterday and Last 2 Weeks

Now
49 °F

Clear.


Feels Like: 49 °F
Forecast: 49 / 75 °F
Wind: No wind

Location: Buchanan Field

Current Time: Apr 28, 2017 at 7:21:53 am

Latest Report: Apr 28, 2017 at 5:53 am


Visibility: 10 mi

Pressure: 29.99 "Hg

Humidity: 80%

Dew Point: 43 °F

Location of Walnut CreekLocation

Past Weather in Walnut Creek — Graph

°F

Walnut Creek Temperature Yesterday

Maximum temperature yesterday: 74 °F (at 2:53 pm)
Minimum temperature yesterday: 52 °F (at 4:53 am)
Average temperature yesterday: 61 °F

High & Low Weather Summary for the Past Weeks

 TemperatureHumidityPressure
High78 °F (Apr 21, 3:53 pm)100% (Apr 17, 2:17 am)30.29 "Hg (Apr 17, 2:17 am)
Low42 °F (Apr 14, 6:53 am)31% (Apr 27, 2:53 pm)29.86 "Hg (Apr 13, 5:53 am)
Average59 °F70%30.03 "Hg
* Reported Apr 13 5:53 am — Apr 28 5:53 am, Walnut Creek, Weather by CustomWeather, © 2017

Note: Actual official high and low records may vary slightly from our data, if they occured in-between our weather recording intervals... More about our weather records

Advertising

Walnut Creek Weather History for the Previous 24 Hours

Scroll right to see more
 ConditionsComfort  
Time TempWeatherWind HumidityBarometerVisibility
5:53 am
Fri, Apr 28
49 °FClear.No wind80%29.99 "Hg10 mi
4:53 am49 °FClear.3 mph80%29.98 "Hg10 mi
3:53 am51 °FClear.5 mph74%29.98 "Hg10 mi
2:53 am54 °FClear.5 mph67%29.98 "Hg10 mi
1:53 am55 °FClear.7 mph64%29.98 "Hg10 mi
12:53 am56 °FClear.7 mph62%29.98 "Hg10 mi
11:53 pm
Thu, Apr 27
57 °FClear.8 mph60%29.98 "Hg10 mi
10:53 pm58 °FClear.3 mph58%29.96 "Hg10 mi
9:53 pm59 °FClear.9 mph58%29.95 "Hg10 mi
8:53 pm61 °FClear.3 mph52%29.95 "Hg10 mi
7:53 pm63 °FSunny.9 mph50%29.93 "Hg10 mi
6:53 pm67 °FSunny.14 mph44%29.93 "Hg10 mi
5:53 pm70 °FSunny.17 mph38%29.92 "Hg10 mi
4:53 pm71 °FSunny.16 mph35%29.93 "Hg10 mi
3:53 pm74 °FSunny.14 mph33%29.95 "Hg10 mi
2:53 pm74 °FSunny.15 mph31%29.96 "Hg10 mi
1:53 pm73 °FSunny.10 mph36%29.98 "Hg10 mi
12:53 pm70 °FSunny.10 mph39%30.00 "Hg10 mi
11:53 am69 °FSunny.9 mph47%30.02 "Hg10 mi
10:53 am66 °FSunny.6 mph59%30.00 "Hg10 mi
9:53 am63 °FSunny.6 mph63%30.02 "Hg10 mi
8:53 am59 °FSunny.No wind75%30.01 "Hg10 mi
7:53 am56 °FSunny.6 mph81%30.00 "Hg10 mi
Weather by CustomWeather, © 2017

See weather overviewHow to use our weather pages